[[{"header":{"parameterUnit":"m.s-1","parameterCategory":1,"la1":30.2991,"la2":30.254,"lo1":-89.0895,"lo2":-89.0444,"dy":0.0017,"dx":0.0017,"nx":28,"ny":28,"refTime":"2025-03-19T21:00:00:Z","depth":0,"parameterNumber":2,"parameterNumberName":"U-component_of_WINDS"},"data":[0,0,0,0,0,0,0,0,0,0,0,0,0,0,0,0,0,0,0,0,0,0,0,0,0,0,0,0,0,0,0,0,0,0,0,0,0,0,0,0,0,0,0,0,0,0,0,0,0,0,0,0,0,0,0,0,0,0,-1.0666,-1.0666,0,-1.0634,-1.0634,-1.0633,-1.0591,-1.059,-1.059,-1.0589,-1.0555,-1.0555,-1.0554,0,0,0,0,0,0,0,0,0,0,0,0,0,-1.0692,-1.0692,-1.0666,-1.0666,-1.0666,-1.0634,-1.0634,-1.0633,-1.0591,-1.059,-1.0589,-1.0589,-1.0555,-1.0555,-1.0554,0,0,0,0,0,0,0,0,0,0,0,0,0,-1.0672,-1.0692,-1.0666,-1.0641,-1.0638,-1.0634,-1.0634,-1.0633,-1.0591,-1.059,-1.0589,-1.0588,-1.0555,-1.0555,-1.0554,-1.0573,0,0,-1.0553,-1.0553,0,0,0,0,0,0,0,0,-1.0674,-1.0672,-1.0645,-1.0642,-1.064,-1.0615,-1.063,-1.0613,-1.0591,-1.0609,-1.0589,-1.0588,-1.0576,-1.0574,-1.057,-1.0571,-1.057,-1.0553,-1.0553,-1.0553,-1.0553,0,0,0,0,0,0,0,-1.0675,-1.0673,-1.0654,-1.0645,-1.0641,-1.0631,-1.0627,-1.0627,-1.0599,-1.0607,-1.0604,-1.0601,-1.0574,-1.057,-1.0569,-1.0569,-1.0553,-1.0553,-1.0553,-1.0552,-1.0586,-1.0587,0,0,0,0,0,0,-1.068,-1.0674,-1.0655,-1.0653,-1.0654,-1.0631,-1.0627,-1.0624,-1.0599,-1.0594,-1.0602,-1.0599,-1.0572,-1.0569,-1.0567,-1.0588,-1.0553,-1.0552,-1.0552,-1.0585,-1.0586,-1.0587,0,0,0,0,0,0,-1.0681,-1.0679,-1.0656,-1.0663,-1.0659,-1.0632,-1.0629,-1.0624,-1.062,-1.0594,-1.0589,-1.0603,-1.0571,-1.0568,-1.0572,-1.0586,-1.0552,-1.0552,-1.0583,-1.0585,-1.0587,-1.0629,0,0,0,0,0,0,-1.0682,-1.0679,-1.0686,-1.0663,-1.0659,-1.0661,-1.063,-1.0624,-1.062,-1.0616,-1.0594,-1.059,-1.057,-1.0573,-1.0572,-1.0585,-1.0552,-1.0582,-1.0584,-1.0586,-1.0626,-1.0632,-1.0637,0,0,0,0,0,-1.0683,-1.0698,-1.0686,-1.0684,-1.0666,-1.0662,-1.0659,-1.0636,-1.0621,-1.0628,-1.0611,-1.059,-1.0585,-1.0574,-1.0572,-1.0585,-1.0581,-1.0584,-1.0586,-1.0624,-1.0631,-1.0637,0,0,0,0,0,0,-1.0723,-1.0695,-1.0681,-1.069,-1.0679,-1.0655,-1.0662,-1.0644,-1.0637,-1.0633,-1.0605,-1.0601,-1.0609,-1.0597,-1.0585,-1.0603,-1.058,-1.0582,-1.0609,-1.0616,-1.0621,-1.0623,-1.0551,0,0,0,0,0,-1.0733,-1.0732,-1.0707,-1.0717,-1.0713,-1.0689,-1.0686,-1.0669,-1.0656,-1.0651,-1.0635,-1.0624,-1.062,-1.0617,-1.0612,-1.0625,-1.062,-1.0634,-1.0639,-1.0643,-1.0645,-1.0652,-1.0658,-1.0596,-1.0596,-1.0596,0,0,-1.0753,-1.0737,-1.0738,-1.0725,-1.0714,-1.0714,-1.0685,-1.0685,-1.0685,-1.0651,-1.0654,-1.0643,-1.0628,-1.0637,-1.064,-1.0628,-1.0662,-1.0647,-1.065,-1.065,-1.0656,-1.0662,-1.0667,-1.0597,-1.0597,-1.0597,0,0,-1.0789,-1.0777,-1.0785,-1.0775,-1.076,-1.0745,-1.0747,-1.0726,-1.0717,-1.072,-1.0695,-1.0695,-1.0688,-1.0679,-1.0673,-1.0709,-1.069,-1.0708,-1.0735,-1.0743,-1.0748,-1.0752,-1.0765,-1.077,-1.0711,-1.0711,-1.0711,0,-1.0816,-1.0814,-1.0791,-1.0794,-1.0789,-1.076,-1.0767,-1.0759,-1.0743,-1.0741,-1.0728,-1.072,-1.0708,-1.0715,-1.0724,-1.072,-1.0722,-1.071,-1.0749,-1.0753,-1.0757,-1.0769,-1.0774,-1.0713,-1.0713,-1.0713,-1.0712,0,-1.0848,-1.0848,-1.0856,-1.0842,-1.0838,-1.0843,-1.0821,-1.082,-1.0805,-1.0791,-1.0795,-1.078,-1.0772,-1.0773,-1.0757,-1.0778,-1.0771,-1.0754,-1.0731,-1.0765,-1.0776,-1.0781,-1.0717,-1.0716,-1.0715,-1.0714,0,0,-1.0906,-1.0881,-1.0884,-1.0878,-1.0861,-1.086,-1.0865,-1.0857,-1.0857,-1.0848,-1.0851,-1.0848,-1.0832,-1.0826,-1.081,-1.0817,-1.0847,-1.0799,-1.0798,-1.0808,-1.087,-1.0882,-1.0888,-1.0835,-1.0835,-1.0836,-1.0871,0,-1.0939,-1.0945,-1.0925,-1.0937,-1.0937,-1.091,-1.0915,-1.0905,-1.0892,-1.0891,-1.0877,-1.0875,-1.0855,-1.0851,-1.0857,-1.0842,-1.0859,-1.0839,-1.0837,-1.0838,-1.0841,-1.0894,-1.0906,-1.094,-1.0875,-1.0876,-1.0876,0,-1.0977,-1.0971,-1.0983,-1.0966,-1.0965,-1.0969,-1.0962,-1.0961,-1.0949,-1.094,-1.0935,-1.0916,-1.092,-1.0899,-1.0904,-1.0892,-1.089,-1.0883,-1.0884,-1.0882,-1.0858,-1.0893,-1.095,-1.0955,-1.0883,-1.0882,-1.0882,0,-1.1019,-1.1013,-1.102,-1.1016,-1.0996,-1.1,-1.0992,-1.098,-1.0977,-1.0971,-1.0969,-1.0963,-1.096,-1.0956,-1.0937,-1.0923,-1.0945,-1.0922,-1.0938,-1.0938,-1.0942,-1.0942,-1.1,-1.0943,-1.0943,-1.0943,-1.0942,0,-1.1057,-1.1065,-1.1038,-1.1042,-1.1051,-1.1029,-1.1038,-1.1028,-1.1018,-1.102,-1.0997,-1.0999,-1.0974,-1.0974,-1.0959,-1.0966,-1.0965,-1.0958,-1.0954,-1.0959,-1.096,-1.0957,-1.0954,-1.0944,-1.0944,-1.0943,-1.0943,0,-1.1104,-1.1086,-1.1092,-1.1074,-1.107,-1.1077,-1.1062,-1.1065,-1.1052,-1.1055,-1.1054,-1.1034,-1.1033,-1.1014,-1.1008,-1.0999,-1.1012,-1.1003,-1.1016,-1.1013,-1.103,-1.1028,-1.1086,-1.1093,-1.1032,-1.1033,-1.1033,0,-1.1129,-1.1135,-1.1118,-1.1118,-1.1111,-1.1111,-1.1109,-1.1088,-1.1087,-1.1076,-1.1081,-1.1078,-1.1074,-1.1074,-1.1059,-1.1055,-1.1046,-1.1067,-1.1045,-1.1051,-1.1046,-1.1046,-1.1047,-1.1071,-1.1072,-1.1072,-1.1073,0,-1.1176,-1.1167,-1.1165,-1.116,-1.1158,-1.1153,-1.1147,-1.1148,-1.1125,-1.1125,-1.1124,-1.1122,-1.1117,-1.1115,-1.1108,-1.11,-1.1083,-1.108,-1.1084,-1.1089,-1.1096,-1.1093,-1.1028,-1.1078,-1.1078,-1.1078,-1.1077,-1.1077,-1.1212,-1.1217,-1.1206,-1.1205,-1.1198,-1.1193,-1.1196,-1.1184,-1.1183,-1.1177,-1.1166,-1.1167,-1.1157,-1.1147,-1.1141,-1.1142,-1.1131,-1.1136,-1.1137,-1.1139,-1.1142,-1.1097,-1.1141,-1.114,-1.114,-1.114,-1.114,0,-1.1258,-1.125,-1.1249,-1.1241,-1.1241,-1.1226,-1.1218,-1.1219,-1.122,-1.1213,-1.121,-1.121,-1.1208,-1.1194,-1.1191,-1.1194,-1.1186,-1.1194,-1.1193,-1.1192,-1.1152,-1.1149,-1.12,-1.12,-1.12,-1.12,-1.12,-1.12,-1.1281,-1.1288,-1.1279,-1.1283,-1.1275,-1.1276,-1.1273,-1.1269,-1.1263,-1.1264,-1.1263,-1.1254,-1.1244,-1.124,-1.1238,-1.1234,-1.1234,-1.1244,-1.1238,-1.12,-1.1194,-1.1189,-1.1186,-1.1245,-1.1245,-1.1278,-1.1278,-1.1278]},{"header":{"parameterUnit":"m.s-1","parameterCategory":1,"la1":30.2991,"la2":30.254,"lo1":-89.0895,"lo2":-89.0444,"dy":0.0017,"dx":0.0017,"nx":28,"ny":28,"refTime":"2025-03-19T21:00:00:Z","depth":0,"parameterNumber":3,"parameterNumberName":"V-component_of_WINDS"},"data":[0,0,0,0,0,0,0,0,0,0,0,0,0,0,0,0,0,0,0,0,0,0,0,0,0,0,0,0,0,0,0,0,0,0,0,0,0,0,0,0,0,0,0,0,0,0,0,0,0,0,0,0,0,0,0,0,0,0,3.9731,3.9731,0,3.9705,3.9704,3.9704,3.9701,3.9701,3.9701,3.9702,3.9669,3.9668,3.9667,0,0,0,0,0,0,0,0,0,0,0,0,0,3.9777,3.9776,3.9731,3.9731,3.9731,3.9705,3.9704,3.9704,3.9701,3.9701,3.9702,3.9702,3.967,3.9668,3.9667,0,0,0,0,0,0,0,0,0,0,0,0,0,3.9754,3.9776,3.9731,3.9726,3.9726,3.9705,3.9704,3.9704,3.9701,3.9701,3.9702,3.9702,3.967,3.9669,3.9667,3.9648,0,0,3.9662,3.9661,0,0,0,0,0,0,0,0,3.9755,3.9752,3.9727,3.9727,3.9726,3.9707,3.9708,3.9685,3.9701,3.971,3.9702,3.9702,3.9681,3.9679,3.9672,3.9646,3.9645,3.9662,3.9661,3.966,3.9659,0,0,0,0,0,0,0,3.9757,3.9753,3.9721,3.9727,3.9726,3.9724,3.9721,3.9704,3.9693,3.9709,3.9709,3.9706,3.9681,3.9674,3.9672,3.9645,3.9662,3.966,3.9659,3.9658,3.9602,3.9602,0,0,0,0,0,0,3.976,3.9755,3.9721,3.972,3.9742,3.9723,3.972,3.9712,3.9694,3.9691,3.9706,3.9706,3.9677,3.9674,3.967,3.9647,3.966,3.9658,3.9657,3.9603,3.9602,3.9602,0,0,0,0,0,0,3.9761,3.9757,3.9723,3.9737,3.9733,3.9722,3.9713,3.9711,3.9705,3.9691,3.9689,3.9701,3.9677,3.9673,3.9654,3.9646,3.9658,3.9656,3.9603,3.9602,3.9602,3.9601,0,0,0,0,0,0,3.9762,3.9757,3.9751,3.9737,3.9732,3.9708,3.9713,3.9711,3.9703,3.9703,3.9686,3.9684,3.9677,3.9657,3.9652,3.9644,3.9655,3.9604,3.9603,3.9602,3.9602,3.96,3.9599,0,0,0,0,0,3.9764,3.9751,3.9751,3.9747,3.9724,3.9707,3.9704,3.9698,3.9702,3.9695,3.9686,3.9684,3.9648,3.9655,3.965,3.9641,3.9604,3.9603,3.9602,3.9602,3.9601,3.9599,0,0,0,0,0,0,3.9762,3.9749,3.9748,3.9731,3.972,3.9707,3.9698,3.9697,3.9684,3.9684,3.9676,3.9672,3.9654,3.9645,3.9653,3.9622,3.9626,3.9624,3.9628,3.9626,3.9625,3.9627,3.9653,0,0,0,0,0,3.976,3.9749,3.9737,3.9722,3.9718,3.9709,3.9701,3.9698,3.9686,3.9681,3.9671,3.9658,3.9644,3.9635,3.9621,3.9601,3.9597,3.9592,3.9591,3.959,3.9588,3.9577,3.9575,3.9598,3.9598,3.9598,0,0,3.9754,3.9746,3.9739,3.9722,3.9713,3.9701,3.9705,3.9691,3.9682,3.9678,3.9661,3.9653,3.9638,3.9619,3.961,3.9611,3.9581,3.9589,3.9588,3.9587,3.9576,3.9574,3.9572,3.9597,3.9597,3.9597,0,0,3.9738,3.9731,3.9718,3.971,3.9698,3.9693,3.969,3.9677,3.9672,3.9654,3.9652,3.9639,3.9615,3.9605,3.9597,3.9579,3.9576,3.9574,3.9568,3.9557,3.9555,3.9554,3.9547,3.9545,3.9573,3.9573,3.9573,0,3.9733,3.9716,3.9711,3.9699,3.9691,3.969,3.9676,3.9668,3.9651,3.9646,3.9648,3.9619,3.9609,3.9587,3.9583,3.9576,3.9572,3.9576,3.9556,3.9554,3.9553,3.9546,3.9544,3.9572,3.9572,3.9572,3.9572,0,3.9709,3.9698,3.9689,3.9675,3.9666,3.9653,3.9646,3.9638,3.9635,3.9629,3.9611,3.9599,3.9583,3.9578,3.9574,3.9556,3.9557,3.9558,3.9562,3.9551,3.9544,3.9542,3.9572,3.9572,3.9572,3.9572,0,0,3.9691,3.9676,3.9673,3.9667,3.9654,3.9644,3.963,3.9617,3.961,3.9598,3.9587,3.9567,3.9568,3.9559,3.9554,3.9545,3.9531,3.9547,3.9546,3.9544,3.951,3.951,3.9507,3.953,3.9529,3.9529,3.9511,0,3.9673,3.9651,3.9648,3.9628,3.9617,3.9615,3.9604,3.9594,3.9588,3.9577,3.9569,3.9556,3.9558,3.9553,3.9544,3.9535,3.9524,3.9536,3.9518,3.9517,3.9522,3.9504,3.9503,3.9487,3.9509,3.9509,3.9508,0,3.965,3.964,3.962,3.961,3.9605,3.9595,3.9582,3.9572,3.956,3.9557,3.9547,3.9544,3.9529,3.9534,3.9514,3.9522,3.9514,3.9509,3.9508,3.9506,3.9512,3.9501,3.9482,3.9479,3.9504,3.9505,3.9505,0,3.9639,3.962,3.9606,3.9601,3.9588,3.9581,3.9575,3.9565,3.9557,3.9545,3.954,3.9526,3.9519,3.9508,3.9501,3.9505,3.948,3.9485,3.9476,3.9476,3.9471,3.9471,3.945,3.9466,3.9466,3.9466,3.9466,0,3.962,3.9607,3.9601,3.9592,3.9578,3.9574,3.9559,3.9553,3.9544,3.9533,3.9531,3.952,3.9512,3.95,3.9494,3.9478,3.9474,3.947,3.9468,3.947,3.9471,3.9465,3.9466,3.9465,3.9465,3.9466,3.9466,0,3.9604,3.96,3.9584,3.9574,3.9571,3.9561,3.9552,3.9543,3.9537,3.9524,3.952,3.9511,3.9497,3.9489,3.9471,3.9467,3.9449,3.9448,3.9453,3.9453,3.9444,3.9445,3.9418,3.9414,3.9433,3.9433,3.9433,0,3.9592,3.9583,3.9573,3.9566,3.9561,3.955,3.9543,3.9538,3.953,3.9517,3.951,3.9496,3.9485,3.9462,3.9453,3.9439,3.9438,3.943,3.9436,3.9438,3.9438,3.9439,3.9438,3.9428,3.9428,3.9428,3.9428,0,3.9572,3.9571,3.9561,3.9551,3.9542,3.9534,3.9525,3.9519,3.9513,3.9504,3.9491,3.9482,3.9465,3.9451,3.9437,3.9429,3.9427,3.9426,3.9423,3.9425,3.9428,3.9427,3.945,3.9427,3.9427,3.9427,3.9427,3.9427,3.9558,3.955,3.9542,3.9531,3.9525,3.9517,3.9508,3.9502,3.9492,3.9478,3.9476,3.9462,3.9451,3.9432,3.9424,3.9412,3.9414,3.941,3.9409,3.9408,3.9408,3.9431,3.941,3.941,3.941,3.941,3.941,0,3.9538,3.9533,3.9523,3.9512,3.9503,3.9504,3.9495,3.9487,3.9476,3.9466,3.9456,3.9441,3.9428,3.9418,3.9405,3.9397,3.9396,3.9394,3.9394,3.9392,3.9407,3.9411,3.9395,3.9395,3.9395,3.9395,3.9395,3.9395,3.9526,3.9513,3.951,3.9494,3.9488,3.9476,3.9471,3.9463,3.9456,3.944,3.943,3.9424,3.9415,3.9401,3.9389,3.9386,3.9381,3.9379,3.9376,3.939,3.9391,3.9393,3.9396,3.9378,3.9378,3.9363,3.9363,3.9363]}]]